Regional Weather Roundup
Issued by NWS

Home | Current Version | Previous Version | Text Only | Print | Product List | Glossary Off
Versions: 1 2 3 4 5 6 7 8 9 10 11 12 13 14 15 16 17 18 19 20 21 22 23 24 25 26 27 28 29 30 31 32 33 34 35 36 37 38 39 40 41 42 43 44 45 46 47 48 49 50

000
ASUS43 KDMX 300108
RWRIA

WEATHER ROUNDUP FOR IOWA
NATIONAL WEATHER SERVICE DES MOINES IA
800 PM CDT MON AUG 29 2016

NOTE: "FAIR" INDICATES FEW OR NO CLOUDS BELOW 12,000 FEET WITH NO
SIGNIFICANT WEATHER AND/OR OBSTRUCTIONS TO VISIBILITY.

* - THESE STATIONS ARE NOT NWS STATIONS...THUS NOT UNDER NWS
QUALITY CONTROL.  THEY ALSO DO NOT REPORT WEATHER SUCH
AS PRECIPITATION OR FOG.

IAZ001>003-012>014-020>022-031>034-043>046-300200-
   NORTHWEST IOWA

CITY           SKY/WX    TMP DP  RH WIND       PRES   REMARKS
CARROLL *      CLOUDY    72  70  94 CALM      30.18S
CHEROKEE *     CLOUDY    77  73  87 SE6       30.16S
DENISON *      CLOUDY    70  68  94 SW5       30.17S
LE MARS *      CLOUDY    81  73  78 CALM      30.14F HX  85
ORANGE CITY *  CLOUDY    79  73  83 CALM      30.16S HX  82
SHELDON *      PTCLDY    75  73  94 S5        30.15R
SIOUX CITY     CLOUDY    82  73  74 E6        30.12F HX  87
SPENCER        CLOUDY    77  70  79 SE6       30.18R
STORM LAKE *   CLOUDY    73  72  94 SE7       30.19S
$$

IAZ055>058-069>071-079>083-090>094-300200-
   SOUTHWEST IOWA

CITY           SKY/WX    TMP DP  RH WIND       PRES   REMARKS
ATLANTIC *     LGT RAIN  70  70 100 N7        30.18F
AUDUBON *      RAIN      72  68  88 SW6       30.19F
CLARINDA *       N/A     72  70  94 MISG      30.16F
COUNCIL BLFS * CLOUDY    72  68  88 N7        30.17R
CRESTON *      CLOUDY    75  72  88 W5        30.20R
HARLAN  *      LGT RAIN  70  70 100 CALM      30.23R
LAMONI         CLOUDY    74  72  93 W8        30.17R
RED OAK *      CLOUDY    73  70  88 N7        30.17S
SHENANDOAH *   CLOUDY    73 -35   1 NE12G17   30.14F
$$

IAZ047>049-059>061-072>074-084-300200-
   CENTRAL IOWA

CITY           SKY/WX    TMP DP  RH WIND       PRES   REMARKS
AMES           CLOUDY    69  69 100 NW5       30.18R
ANKENY *         N/A    N/A N/A N/A MISG        N/A
BOONE *        CLOUDY    70  68  94 CALM      30.18R
CHARITON *       N/A     73  73 100 MISG      30.16S
DES MOINES     CLOUDY    77  70  79 E6        30.14F
GRINNELL*      LGT RAIN  69  68  96 E8        30.15F
KNOXVILLE *    MOCLDY    75  70  83 NE6       30.14F
MARSHALLTOWN   CLOUDY    70  69  97 S5        30.16F
NEWTON *       CLOUDY    72  70  94 CALM      30.14F
PELLA *        CLOUDY    73  68  84 E3        30.16
PERRY *        RAIN      70  70  99 CALM      30.18R
$$

IAZ004>006-015-016-023>025-035-036-300200-
   NORTH CENTRAL IOWA

CITY           SKY/WX    TMP DP  RH WIND       PRES   REMARKS
ALGONA *       CLOUDY    73  70  88 SE5       30.18S
ESTHERVILLE    CLOUDY    73  71  93 S8        30.17R
FORT DODGE *   CLOUDY    72  66  83 SW6       30.18S
MASON CITY     PTCLDY    71  68  90 CALM      30.19F
FOREST CITY *    N/A    N/A N/A N/A MISG        N/A
WEBSTER CITY * CLOUDY    70  70 100 S6        30.16R
IOWA FALLS *     N/A     71  68  90 E3        30.20S
$$

IAZ007>011-017>019-026>030-037>042-050>054-066-300200-
   NORTHEAST IOWA

CITY           SKY/WX    TMP DP  RH WIND       PRES   REMARKS
CEDAR RAPIDS   CLOUDY    73  71  93 CALM      30.16S
CHARLES CITY * PTCLDY    73  73 100 CALM      30.18S
CLINTON *      CLOUDY    72  71  97 NE7       30.17R
DECORAH *      CLOUDY    73  73 100 CALM      30.18R
DUBUQUE        CLOUDY    72  69  90 CALM      30.18S
MONTICELLO *   CLOUDY    75  72  88 SE5       30.16S
OELWEIN *      CLOUDY    72  70  94 NW3       30.20S
WATERLOO       CLOUDY    70  68  93 CALM      30.17S
$$

IAZ064-065-067-068-078-300200-
   EAST CENTRAL IOWA

CITY           SKY/WX    TMP DP  RH WIND       PRES   REMARKS
DAVENPORT      CLOUDY    73  71  93 E3        30.17R
IOWA CITY      CLOUDY    74  70  87 CALM      30.17R
MT. PLEASANT * LGT RAIN  75  75 100 CALM      30.15S
QUAD CITIES    CLOUDY    77  72  84 SE5       30.15R
$$

IAZ062-063-075>077-085>089-095>099-300200-
   SOUTHEAST IOWA

CITY           SKY/WX    TMP DP  RH WIND       PRES   REMARKS
BURLINGTON     CLOUDY    75  68  78 SE3       30.14R
FAIRFIELD *    CLOUDY    77  68  73 SW5       30.16R
FORT MADISON * CLOUDY    73  72  94 CALM      30.16R
KEOKUK *       CLOUDY    77  73  88 NE3       30.13R HAZE
OSKALOOSA *    MOCLDY    74  72  91 NE6       30.17R
CENTERVILLE *    N/A     72  68  88 CALM      30.17S
OTTUMWA        HVY RAIN  70  69  97 SE28G35   30.18R FOG
WASHINGTON *   CLOUDY    75  73  94 CALM      30.17R
$$

ABBREVIATIONS USED IN REMARKS
   TC - TEMPERATURES IN CELSIUS
  WCI - WIND CHILL INDEX
   HX - HEAT INDEX
  VSB - VISIBILITY
$$





USA.gov is the U.S. government's official web portal to all federal, state and local government web resources and services.